COSMOS 1275 DEB, 12949

Orbit data source: Space-Track

COSMOS 1275 DEB, 12949 is space debris in LEO originally from a launch on Thu, 04 Jun 1981 UTC launched from the Plesetsk Missile And Space Complex (PKMTR). Debris objects in space refer to the collection of defunct objects orbiting the Earth. Examples of debris include non-operational satellites, rocket bodies, and fragments generated from explosions, collisions, or faulty payload assembly.

Loading next visibility...
Identifier
12949, 1981-053ED
Orbit
LEO
Country
Flag of CISCIS
Related business
Manufacturer
Unknown
Mission
Spacecraft
Bus & Motor
Unknown
Mass
Unknown
Launch date (UTC)
1981-06-04 (45 years ago)
Launch vehicle
Unknown
Launch site
Plesetsk Missile And Space Complex (PKMTR)
Object type
Payload
Rocket body
Debris
Shape & HBR
Unknown shape, 0.1 m
Radar Cross Section
Small (<0.1 m²)

Expand to show TLE details & history
Last TLE update: 14 hours ago

TLE from 14 hours ago
0 COSMOS 1275 DEB
1 12949U 81053ED  26035.40306248  .00000665  00000-0  46887-3 0  9998
2 12949  82.8421 272.8458 0032602  86.8340 327.2934 13.96372071242265
Epoch: 2026-02-04T09:40Z
TLE epoch observation values (Epoch: 2026-02-04T09:40:24.598Z)
Latitude
53.41527°
Longitude
2.86233°
Altitude
895.166 km
Speed
7.42 km/s
True Right ascension
18h 50m 08s
True Declination
53° 15' 13"
Sunlit
Object was in daylight at epoch
Visualization orbit readout
Latitude
Unknown
Longitude
Unknown
Altitude
Unknown
Speed
Unknown
Apparent Right ascension
Unknown
Apparent Declination
Unknown
Sunlit
N/A
Visualization observer readout
Local Sidereal Time
01:37:55
Azimuth
Unknown
Elevation
Unknown
Doppler factor
Unknown
Orbital elements
Apogee altitude
927.248 km
Perigee altitude
879.769 km
Semi-major axis
7,281.645 km
Eccentricity
0.00326
Inclination
82.8421°
RAAN
272.8458°
Arg. of periapsis
86.834°
True anomaly
327.09084°
Mean anomaly
327.2934°
Eccentric anomaly
327.19219°
Mean motion
3.493 °/min
Orbital period
103.06 mins
BSTAR
0.00046887
Loading maneuver chart data...
Computing Atmospheric mass density...

Documentation

Showing up to 5 results
|